Regional Weather Roundup
Issued by NWS

Home | Current Version | Previous Version | Graphics & Text | Print | Product List | Glossary Off
Versions: 1 2 3 4 5 6 7 8 9 10 11 12 13 14 15 16 17 18 19 20 21 22 23 24 25 26 27 28 29 30 31 32 33 34 35 36 37 38 39 40 41 42 43 44 45 46 47 48 49 50

000
ASUS43 KMKX 210300
RWRWI

WISCONSIN REGIONAL WEATHER ROUNDUP
NATIONAL WEATHER SERVICE MILWAUKEE/SULLIVAN WI
1000 PM CDT MON OCT 20 2014

NOTE: "FAIR" INDICATES FEW OR NO CLOUDS BELOW 12,000 FEET WITH NO
SIGNIFICANT WEATHER AND/OR OBSTRUCTIONS TO VISIBILITY.

WIZ001-002-006>008-014>016-023>028-210400-
NORTHWEST WISCONSIN

CITY           SKY/WX    TMP DP  RH WIND       PRES   REMARKS
SUPERIOR ARPT  CLOUDY    48  38  68 N6        30.10R
ASHLAND        CLOUDY    47  42  83 NE10      30.11R
HAYWARD        CLOUDY    47  39  74 CALM      30.09R
SIREN          CLOUDY    49  39  69 NE7       30.09R
CUMBERLAND     CLOUDY    45  37  76 N5        30.08R
RICE LAKE      CLOUDY    47  39  76 CALM      30.09R
CHETEK         PTCLDY    46  40  80 CALM      30.07S
LADYSMITH      CLOUDY    49  40  71 N6        30.08R
EAU CLAIRE     NOT AVBL
MENOMONIE      CLEAR     43  37  79 CALM      30.07R
NEW RICHMOND   CLEAR     40  38  93 NE3       30.07S
OSCEOLA        CLEAR     41  36  83 CALM      30.10S
$$

WIZ003>005-009-010-017-018-210400-
NORTH CENTRAL WISCONSIN

CITY           SKY/WX    TMP DP  RH WIND       PRES   REMARKS
MANITOWISH WTR CLOUDY    41  40  95 N6        30.06R
ARBOR VITAE    CLOUDY    42  40  92 N6        30.06R
WOODRUFF       CLOUDY    42  40  92 N6        30.06R
RHINELANDER    CLOUDY    41  38  89 NE6       30.06R
EAGLE RIVER    DRIZZLE   40  39  97 N5        30.05R
LAND O LAKES   CLOUDY    41  38  89 N6        30.06S
PHILLIPS       CLOUDY    45  39  81 N3        30.05S
TOMAHAWK       CLOUDY    44  40  87 CALM      30.06R
MEDFORD        CLOUDY    46  39  78 N6        30.05S
MERRILL        CLOUDY    46  41  83 N5        30.05R
$$

WIZ029-030-035-036-043>047-210400-
CENTRAL WISCONSIN

CITY           SKY/WX    TMP DP  RH WIND       PRES   REMARKS
WAUSAU         CLOUDY    45  40  82 NE5       30.04R
MOSINEE        NOT AVBL
MARSHFIELD     CLOUDY    49  40  71 N5        30.05R
STEVENS POINT  CLOUDY    44  38  79 N3        30.05R
WAUPACA        CLOUDY    51  41  69 NW5       30.04R
WAUTOMA        NOT AVBL
WISC RAPIDS    CLOUDY    49  40  71 N7        30.06R
CAMP DOUGLAS   NOT AVBL
$$

WIZ011>013-019>022-031-037>040-048>050-210400-
NORTHEAST WISCONSIN

CITY           SKY/WX    TMP DP  RH WIND       PRES   REMARKS
ANTIGO         CLOUDY    41  39  93 N7        30.04R
SHAWANO        CLOUDY    49  40  71 N8        30.04R
OCONTO         CLOUDY    46  41  82 N5        30.02R
STURGEON BAY   CLOUDY    46  37  71 N15       30.02R
GREEN BAY      CLOUDY    48  41  76 N8        30.03R
MANITOWOC      NOT AVBL
APPLETON       CLOUDY    46  43  87 N6        30.03R
CLINTONVILLE   CLOUDY    46  39  76 N5        30.03S
OSHKOSH        CLOUDY    49  45  86 NE5       30.02R
$$

WIZ032>034-041-042-053>061-210400-
SOUTHWEST WISCONSIN

CITY           SKY/WX    TMP DP  RH WIND       PRES   REMARKS
LA CROSSE      CLEAR     47  41  80 NW6       30.05R
SPARTA         CLOUDY    50  39  66 CALM      30.05S
VIROQUA        CLEAR     45  39  78 NE5       30.04S
BOSCOBEL       CLEAR     44  39  82 CALM      30.05R
PRAIRIE DU CHI CLEAR     51  38  62 CALM      30.03R
PLATTEVILLE    CLEAR     46  40  81 CALM      30.04R
$$

WIZ056-057-062-063-064-067-068-210400-
SOUTH CENTRAL WISCONSIN

CITY           SKY/WX    TMP DP  RH WIND       PRES   REMARKS
REEDSBURG      CLOUDY    51  40  66 N5        30.04R
BARABOO/DELLS  CLOUDY    51  38  61 N3        30.04R
LONE ROCK      NOT AVBL
MINERAL POINT  PTCLDY    50  37  62 N6        30.03R
MADISON        CLOUDY    52  40  63 N8        30.03R
MIDDLETON      MOCLDY    53  40  61 N7        30.03R
WATERTOWN      CLOUDY    49  44  81 CALM      30.01S
MONROE         CLOUDY    46  43  87 NE6       30.01R
JANESVILLE     CLOUDY    54  41  62 NE5       30.01R
$$

WIZ051-052-058>065-066-070>072-210400-
SOUTHEAST WISCONSIN

CITY           SKY/WX    TMP DP  RH WIND       PRES   REMARKS
MILWAUKEE      MOCLDY    51  42  71 N7        30.01R
WAUKESHA       CLOUDY    46  41  81 NW6       30.01
MILWAUKEE/TIMM CLOUDY    50  41  71 NW5       30.01S
RACINE         CLOUDY    51  45  79 NW7       30.02R
BURLINGTON     CLOUDY    50  41  70 N8        30.01R
KENOSHA        CLOUDY    51  43  74 NW6       30.00S
FOND DU LAC    CLOUDY    48  44  86 N13       30.03R
SHEBOYGAN      CLOUDY    48  43  82 NW8       30.01R
WEST BEND      CLOUDY    48  41  76 NW3       30.01R
JUNEAU         CLOUDY    49  42  76 NW6       30.03R
$$

LSZ147-162-210400-
LAKE SUPERIOR

STATION/POSITION TIME  TEMP    WIND        PRES    WAVE
                       AIR SEA DIR/SP/G            HT/PER
                 (UTC) (F)     (DEG/KT/KT) (MB)    (FT/S)
W MID LAKE BUOY  0150   45 46   30/ 19/ 23 1019.1R   3/ 4
DEVILS ISLAND    0200   48      50/ 10/ 12 1019.8R
PORT WING        0200   49      40/ 14/ 16 1019.3
SAXON HARBOR     0200   48      50/ 12/ 14 1018.6R
$$

LMZ867-665-643>646-210400-
LAKE MICHIGAN

STATION/POSITION TIME  TEMP    WIND        PRES    WAVE
                       AIR SEA DIR/SP/G            HT/PER
                 (UTC) (F)     (DEG/KT/KT) (MB)    (FT/S)
CHAMBERS ISLAND  0200   48     330/ 17/ 21 1015.9R
N MID LAKE BUOY  0150   47 52  330/ 21/ 25 1014.5R   5/ 5
NORTHPORT PIER   0200   47     340/ 21/ 26 1015.6S
KEWAUNEE LAKESHO 0100          350/  3/  5   N/A
SHEBOYGAN LAKESH 0200   50 50  320/ 13/ 15 1016.1R
PORT WASHINGTON  0200   51     300/  4/  5 1016.6
ATWATER BUOY     0200   52     350/ 10/ 12 1016.7R
MILWAUKEE LAKESH 0200   52     340/  8/ 10   N/A
S MID LAKE BUOY  0150   52 55  340/ 12/ 16 1015.0R   3/ 5
KENOSHA   LAKESH 0200   53     320/  7/ 11 1015.6R
$$

TC  - TEMPERATURE IN CELSIUS
VSB - VISIBILITY IN STATUTE MILES
WCI - WIND CHILL INDEX
HX  - HEAT INDEX



USA.gov is the U.S. government's official web portal to all federal, state and local government web resources and services.